TimeAKDT,TemperatureF,Dew PointF,Humidity,Sea Level PressureIn,VisibilityMPH,Wind Direction,Wind SpeedMPH,Gust SpeedMPH,PrecipitationIn,Events,Conditions,WindDirDegrees,DateUTC
12:53 AM,36.0,27.0,70,30.25,10.0,NNE,8.1,-,N/A,,Clear,20,2013-05-09 08:53:00
1:53 AM,35.1,26.1,70,30.27,10.0,NNE,4.6,-,N/A,,Clear,30,2013-05-09 09:53:00
2:53 AM,35.1,27.0,72,30.27,10.0,North,5.8,-,N/A,,Clear,10,2013-05-09 10:53:00
3:53 AM,35.1,26.1,70,30.26,10.0,NNE,6.9,-,N/A,,Clear,20,2013-05-09 11:53:00
4:53 AM,35.1,25.0,67,30.27,10.0,North,9.2,-,N/A,,Clear,10,2013-05-09 12:53:00
5:53 AM,34.0,26.1,73,30.27,10.0,North,6.9,-,N/A,,Clear,10,2013-05-09 13:53:00
6:53 AM,35.1,27.0,72,30.27,10.0,NNE,4.6,-,N/A,,Clear,20,2013-05-09 14:53:00
7:53 AM,37.0,27.0,67,30.28,10.0,NNE,6.9,-,N/A,,Mostly Cloudy,20,2013-05-09 15:53:00
8:53 AM,37.4,26.6,65,30.28,10.0,NE,4.6,-,N/A,,Overcast,40,2013-05-09 16:53:00
9:53 AM,39.0,26.1,60,30.29,10.0,NNE,6.9,-,N/A,,Overcast,30,2013-05-09 17:53:00
10:53 AM,42.1,25.0,51,30.30,10.0,NE,6.9,-,N/A,,Overcast,50,2013-05-09 18:53:00
11:53 AM,44.1,25.0,47,30.30,10.0,ENE,8.1,-,N/A,,Overcast,60,2013-05-09 19:53:00
12:53 PM,46.0,26.1,46,30.30,10.0,East,4.6,-,N/A,,Overcast,80,2013-05-09 20:53:00
1:53 PM,48.9,28.9,46,30.30,10.0,ENE,6.9,-,N/A,,Overcast,60,2013-05-09 21:53:00
2:53 PM,48.0,30.0,50,30.30,10.0,NNE,4.6,-,N/A,,Overcast,20,2013-05-09 22:53:00
3:53 PM,48.9,28.0,44,30.29,10.0,North,9.2,-,N/A,,Overcast,360,2013-05-09 23:53:00
4:53 PM,48.9,27.0,43,30.28,10.0,North,9.2,-,N/A,,Overcast,360,2013-05-10 00:53:00
5:53 PM,48.9,26.1,41,30.28,10.0,North,9.2,-,N/A,,Overcast,350,2013-05-10 01:53:00
6:53 PM,48.0,28.9,48,30.27,10.0,NNW,10.4,-,N/A,,Overcast,340,2013-05-10 02:53:00
7:53 PM,46.9,32.0,56,30.26,10.0,North,11.5,-,N/A,,Overcast,10,2013-05-10 03:53:00
8:53 PM,45.0,33.1,63,30.25,10.0,North,5.8,-,N/A,,Overcast,360,2013-05-10 04:53:00
9:53 PM,44.1,32.0,63,30.26,10.0,NNW,6.9,-,N/A,,Overcast,330,2013-05-10 05:53:00
10:53 PM,41.0,32.0,70,30.26,10.0,North,3.5,-,N/A,,Partly Cloudy,10,2013-05-10 06:53:00
11:53 PM,39.9,30.9,70,30.25,10.0,NNE,4.6,-,N/A,,Clear,20,2013-05-10 07:53:00